GQPP Airport Information

Runway Information
Runway 02 Length 7961 ft width 148 ft
Elevation 4 ft Threshold 0 ft Heading 14
Runway 20 Length 7961 ft Width 148 ft
Elevation 7 ft Threshold 0 ft Heading 194
Airport Frequencies
Type A/G Name RDO Frequency 886.1 MHZ
Type TWR Name TWR Frequency 120.8 MHZ
Airport Navaids
Type VOR-DME Name Nouadhibou Frequency 113500 KHZ
Airport Weather Information & NOTAM
ADDS - METARS form results

(1009 UTC 18 August 2018)
 
METAR text: GQPP 181000Z 02020KT 8000 NSC 24/17 Q1013 NOSIG
Conditions at: GQPP (NOUADHIBOU , MR) observed 1000 UTC 18 August 2018
Temperature: 24.0°C (75°F)
Dewpoint: 17.0°C (63°F) [RH = 65%]
Pressure (altimeter): 29.91 inches Hg (1013.0 mb)
Winds: from the NNE (20 degrees) at 23 MPH (20 knots; 10.4 m/s)
Visibility: 5 miles (8 km)
Ceiling: at least 12,000 feet AGL
Clouds: sky clear below 12,000 feet AGL
Weather: no significant weather observed at this time